Location: *
(45.8589°N, 4.7139°E)
Time: 00:09:24
(UTC+00:00)

Cosmos 1726 Rocket - Pass Details

Date: 09 April 2020
Orbit: 602 x 631 km, 82.5° (Epoch: 02 June)

Event Time Altitude Azimuth Distance (km) Brightness Sun altitude
Rises 18:55:04 0° 174° (S) 2,882 6.7 -6.6°
Reaches altitude 10° 18:57:18 10° 170° (S) 1,986 5.9 -7.0°
Maximum altitude 19:01:35 53° 94° (E) 775 3.7 -7.7°
Drops below altitude 10° 19:05:56 10° 18° (NNE) 2,016 6.2 -8.4°
Sets 19:08:13 0° 14° (NNE) 2,931 7.1 -8.8°
